Find Starlink 35035

NORAD ID: 65407 Int'l Des: 2025-192 Owner: SPXS Country: US Constellation: starlink operational
LEOCIRCULAR

Live-Position

3D-Globus wird geladen...

Über Starlink 35035

Beschreibung wird geladen...

Nächste Überflüge

Passes for default location (London). Set your location on the main map for personalized predictions.

Höhenverlauf

Loading altitude history...

Zweizeiliger Elementsatz

1 65407U 25192D 26104.87402876 .00009071 00000-0 31800-3 0 9998
2 65407 53.1599 64.3229 0001462 94.5453 265.5714 15.30203707 34921
Epoch: 14. Apr. 2026 • Age: 12 hours

Aktueller Status

Höhe 477.5 km
Geschwindigkeit 7.63 km/s
Subsatellitenpunkt -7.81°S, 87.24°W
Startdatum 31. Aug. 2025
Alter 0.6 years
Typ internet

Technische Details

Klassifizierung Payload
Masse 575.00 kg
Trockenmasse 530.00 kg
Gesamtmasse 575.00 kg
Länge 0.30 m
Durchmesser 4.10 m
Spannweite 29.00 m
Form Box + pan
Hersteller SPXS
Bus-Typ Starlink V2MO
Phasenstatus In Orbit
Besitzer/Staat SPXS/US

Most Searched